Location: *
(53.4003°S, 165.3236°W)
Time: 02:27:55
(UTC+00:00)

Cosmos 1802 Rocket - Pass Details

Date: 11 December 2023
Orbit: 954 x 1011 km, 82.9° (Epoch: 24 February)

Event Time Altitude Azimuth Distance (km) Brightness Sun altitude
Rises 12:37:28 0° 193° (SSW) 3,751 8.0 -10.4°
Reaches altitude 10° 12:40:04 10° 197° (SSW) 2,788 7.2 -10.2°
Maximum altitude 12:46:17 56° 272° (W) 1,167 4.3 -9.8°
Enters shadow 12:52:16 10° 348° (NNW) 2,689 5.7 -9.4°
